Lapse_Rate
6.0 5.9 6.1 6.2 6.1 6.2 6.3 6.3 6.3 6.4 6.3 6.4 6.3 6.1 5.9 5.8 5.9 5.9 5.8 5.9 5.8 5.7 5.6 5.5 5.5 5.6 5.6 5.5 5.6 5.6 5.6 5.5 5.8 6.0 5.9 5.9 5.9 6.0 6.1 6.1 6.1 6.0 6.0
5.9 6.0 6.1 6.0 6.0 6.0 6.0 6.1 6.2 6.2 6.3 6.3 6.1 6.1 6.2 6.1 5.9 5.9 6.0 6.0 5.8 5.7 5.4 5.4 5.4 5.5 5.6 5.6 5.4 5.5 5.5 5.6 5.7 5.8 5.8 6.0 6.1 6.0 6.0 6.2 6.0 5.9 6.0
6.0 5.9 6.0 5.8 5.8 5.8 5.8 5.8 5.9 6.0 5.8 5.8 5.9 6.0 6.1 6.2 6.2 6.1 5.9 5.7 5.5 5.5 5.5 5.4 5.5 5.8 6.0 6.0 5.9 5.9 5.7 5.7 5.7 5.7 5.8 5.9 5.8 5.9 6.0 5.9 6.0 5.9 6.1
5.9 6.0 5.8 5.8 5.9 5.7 5.6 5.5 5.6 5.6 5.6 5.8 5.9 6.0 6.0 5.9 6.0 5.9 5.8 5.7 5.7 5.7 5.7 5.7 5.9 5.9 5.8 5.9 6.0 6.0 5.9 5.8 5.7 5.6 5.6 5.8 5.8 5.8 5.7 5.7 5.8 6.0 6.0
5.9 6.1 5.9 5.8 5.7 5.6 5.5 5.4 5.3 5.4 5.5 5.8 6.0 5.9 5.8 5.9 5.8 5.8 5.7 5.6 5.6 5.6 5.7 6.0 6.0 5.9 5.9 5.7 5.8 5.9 6.1 6.0 5.9 5.9 5.9 6.0 6.1 6.2 5.9 6.0 6.0 5.9 6.1
6.1 5.9 6.1 6.0 5.7 5.6 5.5 5.4 5.4 5.5 5.7 5.9 5.8 5.8 5.7 5.6 5.6 5.5 5.4 5.4 5.3 5.4 5.8 5.8 5.8 5.7 5.8 5.9 6.0 5.9 5.8 5.9 5.8 5.9 6.1 6.2 6.1 6.2 6.1 6.1 6.1 6.1 6.2
5.5 6.1 6.0 5.9 5.9 5.7 5.6 5.6 5.6 5.7 5.8 5.8 5.7 5.7 5.6 5.6 5.8 5.4 5.4 5.1 5.1 5.4 5.6 5.6 5.6 5.8 6.0 5.9 5.9 6.0 6.0 5.9 5.8 5.8 5.4 5.6 5.8 5.8 6.0 6.0 6.1 6.1 6.2
5.4 6.1 5.9 6.0 5.8 5.6 5.6 5.6 5.7 5.8 5.8 5.7 5.5 5.5 5.5 5.6 5.7 5.5 5.1 4.8 4.9 5.2 5.3 5.4 5.7 5.8 5.9 5.8 5.8 5.9 5.9 5.8 5.8 5.7 5.6 5.9 6.1 6.1 6.2 6.2 6.2 6.2 6.4
5.1 5.9 5.9 5.9 5.6 5.5 5.5 5.5 5.6 5.7 5.5 5.4 5.4 5.5 5.4 5.5 5.5 5.3 4.9 4.8 4.6 4.9 5.2 5.4 5.5 5.6 5.6 5.7 5.8 5.7 5.7 5.6 5.6 5.7 5.4 4.8 5.6 5.7 5.9 6.2 6.3 6.4 6.5
4.9 4.7 5.9 5.8 5.7 5.6 5.5 5.5 5.4 5.3 5.3 5.1 5.0 5.4 5.3 5.3 5.2 5.1 5.1 5.0 5.0 5.1 5.4 5.6 5.6 5.5 5.5 5.5 5.5 5.7 5.7 5.7 5.4 5.8 5.6 5.5 5.6 5.9 6.0 6.0 6.1 6.0 6.1
6.0 6.0 6.0 5.8 5.8 5.8 5.6 5.5 5.7 5.4 5.2 5.2 5.3 5.4 5.5 5.3 5.1 5.1 5.0 5.1 5.2 5.4 5.5 5.6 5.5 5.6 5.7 5.5 5.4 5.4 5.4 5.5 5.1 4.8 5.0 5.5 5.7 5.8 5.7 5.7 5.7 5.8 5.8
5.9 6.0 6.1 6.2 6.1 6.0 5.5 5.5 5.6 5.5 5.4 5.3 5.2 5.2 4.9 4.9 4.9 4.9 4.9 5.2 5.3 5.5 5.6 5.6 5.4 5.3 5.4 4.9 5.4 5.3 5.2 5.1 4.8 4.7 5.3 5.5 5.6 5.5 5.4 5.4 5.3 5.3 5.5
5.7 5.8 6.0 6.1 6.2 5.9 5.6 5.6 5.4 4.9 5.2 5.2 5.2 5.1 5.0 5.1 5.2 5.8 5.3 5.0 5.6 5.7 5.5 5.2 5.0 4.8 4.7 5.4 4.7 4.8 4.7 5.4 5.1 5.5 5.3 5.4 5.6 5.6 5.6 5.6 5.5 5.6 5.8
5.7 5.9 5.8 5.9 6.0 5.9 5.7 5.4 5.5 5.1 5.0 5.3 5.1 5.2 5.2 5.2 5.3 5.1 5.5 5.2 5.7 5.0 5.2 4.8 4.3 5.5 4.9 4.8 5.0 5.5 4.9 4.9 5.1 5.7 5.5 5.6 5.5 5.6 5.5 5.4 5.4 5.5 5.8
5.7 6.0 5.9 6.0 6.1 5.9 5.8 5.6 5.2 5.3 4.9 5.1 4.7 5.3 5.5 5.2 5.6 5.7 5.5 5.5 4.8 5.5 5.0 4.6 5.5 5.3 5.1 4.7 4.9 5.7 5.7 5.1 5.2 4.9 5.7 5.7 5.8 5.6 5.5 5.5 5.4 5.5 5.9
5.7 5.9 6.0 6.0 6.0 6.0 5.8 5.6 5.6 5.5 5.4 4.7 4.7 5.3 5.7 5.6 5.6 5.2 5.3 5.2 5.2 5.0 5.5 5.2 5.5 4.9 5.1 5.2 5.5 5.4 5.5 5.5 5.5 5.5 5.7 6.1 6.3 6.4 6.2 6.1 5.9 5.7 5.8
5.6 5.9 5.9 5.9 5.9 5.8 5.7 5.6 5.7 5.5 5.0 4.7 4.9 5.5 5.6 5.9 5.8 5.7 4.9 5.2 5.6 5.2 4.9 5.1 5.0 4.9 5.0 5.8 5.2 5.2 6.2 6.0 6.0 6.0 5.7 6.0 6.3 6.8 6.7 6.5 6.3 6.2 5.9
5.6 5.8 5.8 5.7 5.9 5.9 5.9 5.7 5.6 5.1 4.6 4.7 4.8 4.8 5.2 5.7 5.9 5.5 4.7 4.9 5.7 5.5 5.7 5.5 5.9 5.8 5.4 6.0 5.4 5.5 5.7 6.1 6.2 5.6 5.3 6.2 4.9 6.5 6.5 6.4 6.2 6.0 5.6
5.6 5.7 5.9 5.9 5.6 5.8 5.9 5.9 5.9 5.8 5.3 4.7 4.7 4.8 5.3 5.3 5.6 5.5 5.0 5.6 6.0 5.3 5.5 5.9 6.2 5.9 5.5 5.5 5.1 5.2 5.9 5.7 4.5 5.4 4.7 6.4 6.5 6.0 6.3 6.2 6.1 5.9 5.5
5.7 5.7 5.8 5.9 6.0 5.7 5.7 5.9 6.1 5.8 4.6 4.4 4.6 4.8 5.5 5.3 5.8 5.8 5.2 6.0 6.1 5.0 5.2 6.1 6.4 6.5 6.4 6.5 6.1 5.4 5.5 5.4 6.0 6.1 6.1 6.4 6.6 6.3 6.1 6.0 5.8 5.9 5.8
5.7 5.8 5.7 5.6 5.7 5.8 5.6 5.6 5.9 5.3 4.8 4.5 4.5 5.4 5.9 6.0 5.9 5.9 4.8 5.1 5.1 5.8 6.4 6.6 6.5 6.4 6.1 6.6 6.6 5.2 6.0 6.4 6.1 6.4 6.5 6.5 6.5 6.5 6.4 6.0 5.8 5.0 5.3
5.7 5.8 5.9 5.8 5.6 5.5 5.7 5.7 5.5 5.4 4.6 4.7 5.0 6.0 6.0 6.1 6.0 5.1 6.0 6.1 6.0 6.3 6.1 6.5 6.5 6.7 6.2 6.8 6.7 6.4 5.5 5.6 5.7 6.3 6.3 6.5 6.9 6.6 6.5 6.1 5.9 5.6 5.3
5.7 5.6 5.8 6.0 5.9 5.7 5.7 5.9 5.9 6.0 5.9 6.0 6.0 5.9 5.8 6.2 6.3 6.2 6.4 6.3 6.2 5.8 6.1 6.5 6.4 6.7 6.7 6.0 7.1 6.9 6.8 6.2 6.5 6.1 6.9 6.7 6.5 6.0 6.0 6.2 6.1 5.8 5.6
5.7 5.7 5.7 5.9 6.3 6.0 5.8 5.8 5.9 6.1 6.1 6.0 6.4 5.8 6.2 6.4 6.6 6.5 6.5 6.3 6.3 6.3 6.2 6.6 6.8 7.0 6.9 6.9 7.0 6.9 7.0 6.9 6.9 6.5 5.2 6.9 6.9 6.9 6.5 5.8 5.0 5.4 5.7
5.1 5.7 5.8 6.0 6.2 6.4 6.2 6.1 6.1 6.2 6.3 6.5 6.5 6.6 6.7 6.6 6.8 6.9 6.9 6.6 6.6 6.6 6.7 6.9 6.9 6.9 7.1 7.1 7.2 7.2 7.1 6.8 6.7 6.7 6.8 5.3 5.3 5.5 6.1 6.1 5.5 5.2 5.3
4.9 5.2 5.8 6.1 6.2 6.4 6.3 6.3 6.3 6.3 6.4 6.6 6.7 6.9 6.9 6.6 6.9 7.2 7.2 7.0 7.0 7.0 7.0 7.1 6.9 7.0 7.3 7.3 7.4 7.4 7.2 7.0 6.7 6.7 6.6 6.5 5.6 5.3 6.1 6.1 5.6 5.1 4.5
Wind_Speed
11 16 10 9 7 6 7 7 8 8 8 7 8 7 8 7 6 5 4 5 6 7 5 6 6 5 6 6 6 5 5 5 5 5 6 7 7 5 3 2 4 10 10
14 15 9 8 7 6 7 8 8 8 8 7 8 8 8 8 7 6 5 4 5 5 4 4 3 5 5 5 4 4 2 3 3 3 4 7 9 9 4 3 3 12 10
16 17 12 8 8 7 7 8 7 8 7 6 7 7 7 7 7 6 6 6 4 3 2 2 4 6 6 4 3 2 1 0 1 1 4 10 10 13 7 4 3 7 7
14 18 18 12 10 9 7 7 8 8 8 6 7 7 7 6 6 5 5 4 2 2 3 5 6 6 5 6 5 4 4 4 3 4 7 2 4 16 12 7 4 4 5
16 19 19 14 11 9 8 7 9 8 8 9 10 8 6 7 7 5 3 2 3 4 5 6 5 5 5 5 6 7 7 7 6 8 8 7 6 15 15 12 9 8 9
19 25 20 14 13 10 8 8 9 7 6 6 8 6 5 4 3 4 3 3 4 4 3 5 5 4 4 5 6 6 8 9 9 12 8 11 7 17 13 10 9 8 12
18 21 18 13 12 11 12 11 9 8 6 5 5 4 4 4 4 4 4 5 5 3 6 7 3 5 6 6 7 8 11 11 12 10 9 10 11 18 14 11 11 12 12
15 20 18 15 12 11 11 11 9 8 6 5 4 4 3 4 3 3 3 4 3 1 4 2 1 4 7 9 10 8 7 10 14 13 13 14 13 16 11 11 14 15 15
14 15 16 17 13 9 13 10 8 8 5 4 2 1 1 0 2 1 2 3 2 1 3 4 4 5 5 7 7 7 7 8 13 11 8 10 20 13 10 14 16 16 17
10 12 14 16 15 17 14 10 8 7 4 3 2 2 5 6 7 6 7 5 2 2 4 6 7 8 8 10 7 6 8 14 18 16 9 2 13 7 8 12 15 14 16
9 9 11 12 8 9 13 11 9 8 9 8 7 6 10 3 3 6 7 3 2 2 5 7 9 11 14 17 16 15 15 15 8 4 7 16 9 3 6 9 12 12 13
13 11 11 11 11 10 14 11 10 11 7 6 7 3 7 4 2 2 3 6 8 10 13 15 13 15 16 14 16 19 12 10 5 3 13 14 6 1 5 9 12 13 13
12 10 10 10 10 9 11 10 10 10 11 9 5 4 5 3 4 4 5 12 2 13 8 12 14 5 6 5 7 7 7 8 6 17 12 12 8 4 6 8 11 13 15
10 11 11 10 5 7 8 7 5 8 6 4 7 1 1 7 3 5 4 6 2 4 2 6 7 5 7 7 8 8 10 8 7 14 13 14 11 5 5 8 10 11 12
11 10 11 10 7 5 4 5 4 5 2 6 6 6 3 3 3 3 5 10 5 7 9 4 6 4 7 6 7 8 8 6 9 12 12 16 13 9 6 4 6 5 7
11 10 11 10 8 7 5 5 4 3 7 4 4 8 3 7 4 2 3 4 3 7 6 7 5 6 5 8 5 7 8 12 10 8 11 13 16 15 15 12 13 11 11
10 11 11 10 10 8 6 7 6 6 7 3 5 6 3 6 4 7 3 4 5 4 3 4 4 5 6 5 5 6 5 4 8 4 4 14 17 19 23 18 17 17 18
11 10 10 10 11 9 6 4 5 3 3 2 1 7 3 2 1 8 3 7 8 7 3 3 9 8 6 6 4 6 4 2 5 4 9 10 6 16 19 20 18 18 17
12 10 10 9 10 9 6 5 4 6 6 1 3 3 7 4 4 9 4 8 10 5 5 8 8 6 7 6 7 8 5 1 3 7 6 9 5 13 14 16 19 18 17
13 12 10 9 9 7 5 3 5 5 4 4 2 9 6 5 3 8 2 2 8 7 8 7 7 4 4 3 10 4 2 2 4 4 5 7 8 6 10 10 15 14 17
14 13 11 10 10 7 6 6 5 6 5 4 2 4 4 6 7 4 8 7 6 8 4 7 8 6 7 8 9 4 5 4 4 4 5 5 6 6 6 6 9 7 14
14 14 13 11 10 8 6 6 4 3 2 3 4 4 2 2 5 7 6 8 9 7 8 6 7 7 7 4 7 8 5 4 4 3 4 3 5 1 4 6 6 7 9
15 14 14 13 12 10 9 5 4 4 4 4 5 7 4 0 5 2 5 6 7 8 9 6 7 7 8 6 3 4 5 6 9 5 4 2 2 4 4 4 3 4 5
15 15 14 14 13 12 10 7 6 5 5 1 3 4 2 2 4 3 3 6 6 8 7 7 7 8 6 9 7 6 3 1 4 6 2 6 4 4 4 5 1 8 4
17 15 14 14 13 11 12 10 7 8 5 6 5 3 4 3 5 1 3 5 6 7 7 6 7 7 6 7 6 6 5 5 5 5 7 4 5 5 2 3 4 4 4
17 16 15 15 12 13 12 12 10 7 7 5 5 4 6 3 5 4 3 5 3 7 8 6 6 6 6 5 7 4 6 6 7 7 7 7 6 3 3 1 1 3 4
Wind_Direction
137 129 154 137 121 108 108 106 100 100 94 88 97 110 92 89 85 79 75 78 80 81 77 73 62 64 66 59 63 74 81 94 94 93 103 114 112 107 107 147 194 140 121
132 135 143 123 119 103 98 100 96 101 92 96 96 90 84 84 88 89 81 77 71 72 68 66 53 61 51 43 41 52 63 80 82 124 155 162 153 140 153 216 7 112 121
135 128 149 143 133 119 104 105 97 91 89 83 81 87 84 80 79 73 63 57 55 56 55 18 14 19 16 9 1 357 28 39 157 150 236 237 162 147 146 170 68 101 133
140 143 139 151 143 126 115 115 109 107 93 92 103 96 101 96 95 84 76 69 49 5 335 351 354 340 328 311 300 274 280 266 249 244 240 323 177 149 155 165 151 152 175
151 140 118 142 139 134 124 116 107 97 96 94 95 90 82 70 62 66 59 29 341 330 324 325 315 303 304 313 312 294 267 255 255 251 243 198 215 164 164 172 187 195 207
142 109 130 144 140 129 121 114 105 98 93 89 87 87 70 59 43 27 12 333 307 299 343 323 317 330 327 308 298 300 289 258 245 236 226 205 243 157 165 177 205 204 205
110 113 128 136 133 131 131 117 114 113 112 104 92 77 57 37 22 347 331 315 324 336 344 331 298 300 304 303 307 291 285 248 250 243 245 278 224 156 163 184 206 218 215
113 117 134 127 128 126 122 117 121 117 109 102 79 51 25 6 358 346 7 333 313 317 356 17 330 305 297 288 291 294 304 238 244 237 212 211 145 153 173 199 214 218 214
132 120 137 133 133 138 125 126 122 124 119 105 86 18 337 155 174 218 103 86 50 16 251 259 269 282 292 291 282 268 268 256 263 283 285 225 150 153 188 211 223 225 221
102 132 113 134 154 150 143 134 130 127 144 166 176 250 241 218 210 208 167 122 144 287 255 267 273 276 284 269 252 242 251 254 242 240 185 155 124 154 206 225 230 236 237
127 125 134 123 141 122 132 138 157 178 191 192 191 229 232 39 20 135 84 145 236 254 250 264 274 272 267 256 230 228 234 248 249 308 34 111 110 160 240 244 246 251 253
147 158 127 146 134 170 124 162 156 161 186 97 66 325 62 62 28 288 171 193 231 239 244 244 247 248 257 279 199 224 237 274 290 262 97 92 91 280 267 260 256 254 255
147 141 146 117 155 166 118 156 167 145 149 125 110 357 88 15 321 40 79 180 268 210 1 228 211 262 9 325 326 326 302 271 325 74 81 77 54 346 295 273 263 256 258
153 136 145 130 149 109 145 185 121 123 135 129 91 153 285 206 44 358 31 323 257 20 18 324 19 326 328 291 337 348 320 6 34 99 86 75 56 357 300 283 279 282 279
154 139 131 133 149 133 219 117 139 140 191 98 179 105 26 348 4 21 354 351 309 29 355 2 9 349 304 345 12 5 344 49 22 111 103 91 88 79 49 359 338 329 320
154 153 138 151 150 163 211 161 180 222 133 225 136 80 117 353 33 344 307 271 41 38 340 358 322 309 292 67 326 43 8 41 16 10 121 97 89 83 70 64 62 51 38
160 159 145 158 155 165 163 190 221 176 182 207 122 134 53 316 56 299 13 331 23 333 290 354 272 353 328 157 184 133 98 17 54 34 17 123 101 85 86 80 73 65 63
151 158 154 165 150 169 174 186 254 128 232 216 49 117 62 34 27 278 250 52 348 239 326 325 9 0 353 24 70 83 85 334 168 55 54 27 27 103 94 93 84 72 64
141 158 165 157 163 168 153 217 223 116 257 52 316 34 47 281 55 294 16 54 304 294 65 354 358 6 5 337 322 141 174 100 33 37 68 87 18 114 112 113 103 94 81
147 163 172 173 163 177 159 236 224 162 241 234 231 54 14 36 58 325 18 2 298 343 15 353 338 323 295 329 322 100 132 151 42 72 87 90 73 36 76 138 140 108 97
160 165 177 180 165 189 199 205 205 214 196 244 248 108 283 17 18 301 349 354 350 353 330 8 344 351 320 47 314 350 134 168 78 50 45 37 42 66 56 57 33 31 129
174 173 176 183 177 195 204 234 258 269 259 291 354 49 282 335 325 300 355 330 15 324 73 5 20 341 347 28 3 324 339 149 166 40 45 12 111 226 121 68 54 36 356
181 185 180 187 183 196 239 196 187 259 260 256 218 229 158 334 289 6 344 355 344 294 26 11 22 359 345 332 75 21 342 357 333 144 160 109 299 322 36 139 142 62 6
190 185 189 189 192 191 202 230 215 253 247 235 221 68 327 220 307 298 15 1 359 326 37 10 22 341 338 353 356 35 123 73 347 328 181 161 202 210 117 293 334 153 42
190 188 187 191 195 206 190 230 197 229 219 225 224 116 226 231 233 30 23 6 11 358 45 21 5 2 5 351 5 345 344 301 183 313 312 318 205 172 139 224 32 333 36
195 192 186 183 196 201 196 202 229 237 242 262 192 230 239 207 173 133 16 5 30 6 33 19 7 37 17 24 345 332 352 347 351 330 327 312 339 298 83 133 288 359 345